TimeCDT,TemperatureF,Dew PointF,Humidity,Sea Level PressureIn,VisibilityMPH,Wind Direction,Wind SpeedMPH,Gust SpeedMPH,PrecipitationIn,Events,Conditions,WindDirDegrees,DateUTC
12:15 AM,59.0,42.8,55,30.04,1.0,Calm,Calm,-,N/A,,Haze,0,2013-10-11 05:15:00
12:35 AM,57.2,42.8,59,30.04,0.8,Calm,Calm,-,N/A,,Haze,0,2013-10-11 05:35:00
12:55 AM,57.2,42.8,59,30.04,2.5,Calm,Calm,-,N/A,,Haze,0,2013-10-11 05:55:00
1:15 AM,57.2,41.0,55,30.04,0.2,Calm,Calm,-,N/A,,Haze,0,2013-10-11 06:15:00
1:55 AM,57.2,41.0,55,30.04,1.0,Calm,Calm,-,N/A,,Haze,0,2013-10-11 06:55:00
2:15 AM,55.4,39.2,54,30.04,1.8,Calm,Calm,-,N/A,,Haze,0,2013-10-11 07:15:00
2:35 AM,57.2,41.0,55,30.04,2.0,Calm,Calm,-,N/A,,Haze,0,2013-10-11 07:35:00
2:55 AM,55.4,39.2,54,30.04,2.0,Calm,Calm,-,N/A,,Haze,0,2013-10-11 07:55:00
3:15 AM,55.4,39.2,54,30.03,3.0,Calm,Calm,-,N/A,,Haze,0,2013-10-11 08:15:00
3:35 AM,55.4,39.2,54,30.03,5.0,Calm,Calm,-,N/A,,Haze,0,2013-10-11 08:35:00
3:55 AM,55.4,39.2,54,30.04,0.5,Calm,Calm,-,N/A,,Haze,0,2013-10-11 08:55:00
4:15 AM,55.4,39.2,54,30.04,3.0,Calm,Calm,-,N/A,,Haze,0,2013-10-11 09:15:00
4:35 AM,55.4,39.2,54,30.04,4.0,Calm,Calm,-,N/A,,Haze,0,2013-10-11 09:35:00
4:55 AM,55.4,39.2,54,30.05,3.0,Calm,Calm,-,N/A,,Haze,0,2013-10-11 09:55:00
5:15 AM,55.4,39.2,54,30.05,5.0,Calm,Calm,-,N/A,,Haze,0,2013-10-11 10:15:00
5:35 AM,55.4,39.2,54,30.06,4.0,Calm,Calm,-,N/A,,Haze,0,2013-10-11 10:35:00
5:55 AM,55.4,39.2,54,30.06,3.0,Calm,Calm,-,N/A,,Haze,0,2013-10-11 10:55:00
6:15 AM,55.4,39.2,54,30.06,0.8,Calm,Calm,-,N/A,,Haze,0,2013-10-11 11:15:00
6:35 AM,55.4,39.2,54,30.07,6.0,Calm,Calm,-,N/A,,Haze,0,2013-10-11 11:35:00
6:55 AM,55.4,39.2,54,30.08,3.0,Calm,Calm,-,N/A,,Haze,0,2013-10-11 11:55:00
7:15 AM,55.4,39.2,54,30.08,3.0,Calm,Calm,-,N/A,,Haze,0,2013-10-11 12:15:00
7:35 AM,55.4,39.2,54,30.08,3.0,Calm,Calm,-,N/A,,Haze,0,2013-10-11 12:35:00
7:55 AM,59.0,42.8,55,30.09,4.0,Calm,Calm,-,N/A,,Haze,0,2013-10-11 12:55:00
8:15 AM,60.8,44.6,55,30.09,4.0,Calm,Calm,-,N/A,,Haze,0,2013-10-11 13:15:00
8:35 AM,62.6,46.4,55,30.10,5.0,Calm,Calm,-,N/A,,Haze,0,2013-10-11 13:35:00
8:55 AM,64.4,48.2,56,30.10,7.0,Calm,Calm,-,N/A,,Mostly Cloudy,0,2013-10-11 13:55:00
9:15 AM,66.2,50.0,56,30.10,7.0,Calm,Calm,-,N/A,,Scattered Clouds,0,2013-10-11 14:15:00
9:35 AM,69.8,51.8,53,30.10,7.0,Calm,Calm,-,N/A,,Partly Cloudy,0,2013-10-11 14:35:00
9:55 AM,73.4,55.4,53,30.10,7.0,South,3.5,-,N/A,,Clear,170,2013-10-11 14:55:00
10:15 AM,75.2,59.0,57,30.10,8.0,South,4.6,-,N/A,,Clear,180,2013-10-11 15:15:00
10:35 AM,78.8,60.8,54,30.09,8.0,South,4.6,-,N/A,,Clear,170,2013-10-11 15:35:00
10:55 AM,80.6,62.6,54,30.09,8.0,SW,3.5,-,N/A,,Clear,230,2013-10-11 15:55:00
11:15 AM,82.4,64.4,54,30.09,8.0,Calm,Calm,-,N/A,,Clear,0,2013-10-11 16:15:00
11:35 AM,84.2,66.2,55,30.09,9.0,NNW,3.5,-,N/A,,Clear,340,2013-10-11 16:35:00
11:55 AM,84.2,66.2,55,30.09,9.0,WSW,3.5,-,N/A,,Clear,240,2013-10-11 16:55:00
12:15 PM,86.0,68.0,55,30.08,8.0,West,3.5,-,N/A,,Clear,270,2013-10-11 17:15:00
12:35 PM,84.2,68.0,58,30.07,8.0,West,3.5,-,N/A,,Partly Cloudy,280,2013-10-11 17:35:00
12:55 PM,87.8,69.8,55,30.06,9.0,West,4.6,-,N/A,,Scattered Clouds,260,2013-10-11 17:55:00
1:15 PM,87.8,69.8,55,30.05,8.0,WSW,5.8,-,N/A,,Clear,240,2013-10-11 18:15:00
1:35 PM,89.6,71.6,55,30.04,8.0,Calm,Calm,-,N/A,,Clear,0,2013-10-11 18:35:00
1:55 PM,89.6,71.6,55,30.03,9.0,WSW,3.5,-,N/A,,Scattered Clouds,250,2013-10-11 18:55:00
2:15 PM,87.8,71.6,58,30.03,8.0,SW,3.5,-,N/A,,Partly Cloudy,220,2013-10-11 19:15:00
2:35 PM,89.6,71.6,55,30.02,9.0,West,4.6,-,N/A,,Clear,260,2013-10-11 19:35:00
2:55 PM,87.8,71.6,58,30.02,9.0,SW,3.5,-,N/A,,Clear,230,2013-10-11 19:55:00
3:15 PM,87.8,69.8,55,30.01,9.0,Calm,Calm,-,N/A,,Clear,0,2013-10-11 20:15:00
3:35 PM,84.2,68.0,58,30.01,9.0,Calm,Calm,-,N/A,,Clear,0,2013-10-11 20:35:00
3:55 PM,87.8,71.6,58,30.01,9.0,Calm,Calm,-,N/A,,Clear,0,2013-10-11 20:55:00
4:15 PM,87.8,71.6,58,30.01,8.0,East,3.5,-,N/A,,Clear,100,2013-10-11 21:15:00
4:35 PM,87.8,69.8,55,30.00,8.0,SSE,3.5,-,N/A,,Clear,160,2013-10-11 21:35:00
4:55 PM,86.0,69.8,58,30.00,8.0,South,3.5,-,N/A,,Clear,180,2013-10-11 21:55:00
5:15 PM,86.0,68.0,55,30.00,8.0,Calm,Calm,-,N/A,,Clear,0,2013-10-11 22:15:00
5:35 PM,84.2,66.2,55,30.00,8.0,Calm,Calm,-,N/A,,Clear,0,2013-10-11 22:35:00
5:55 PM,82.4,64.4,54,30.00,9.0,Calm,Calm,-,N/A,,Clear,0,2013-10-11 22:55:00
6:15 PM,78.8,60.8,54,30.00,8.0,Calm,Calm,-,N/A,,Clear,0,2013-10-11 23:15:00
6:35 PM,73.4,57.2,57,30.00,7.0,Calm,Calm,-,N/A,,Clear,0,2013-10-11 23:35:00
6:55 PM,69.8,53.6,56,30.01,8.0,Calm,Calm,-,N/A,,Clear,0,2013-10-11 23:55:00
7:15 PM,68.0,51.8,56,30.01,7.0,Calm,Calm,-,N/A,,Clear,0,2013-10-12 00:15:00
7:35 PM,66.2,50.0,56,30.01,5.0,Calm,Calm,-,N/A,,Haze,0,2013-10-12 00:35:00
7:55 PM,66.2,50.0,56,30.01,4.0,Calm,Calm,-,N/A,,Haze,0,2013-10-12 00:55:00
8:15 PM,64.4,48.2,56,30.01,3.0,Calm,Calm,-,N/A,,Haze,0,2013-10-12 01:15:00
8:35 PM,64.4,48.2,56,30.02,0.2,Calm,Calm,-,N/A,,Haze,0,2013-10-12 01:35:00
8:55 PM,64.4,48.2,56,30.02,0.2,Calm,Calm,-,N/A,,Haze,0,2013-10-12 01:55:00
9:15 PM,64.4,46.4,52,30.02,0.2,Calm,Calm,-,N/A,,Haze,0,2013-10-12 02:15:00
9:35 PM,62.6,46.4,55,30.02,1.8,Calm,Calm,-,N/A,,Haze,0,2013-10-12 02:35:00
9:55 PM,62.6,46.4,55,30.02,2.5,Calm,Calm,-,N/A,,Haze,0,2013-10-12 02:55:00
10:15 PM,62.6,46.4,55,30.02,0.8,Calm,Calm,-,N/A,,Haze,0,2013-10-12 03:15:00
10:35 PM,62.6,46.4,55,30.02,1.5,Calm,Calm,-,N/A,,Haze,0,2013-10-12 03:35:00
10:55 PM,60.8,44.6,55,30.02,0.2,Calm,Calm,-,N/A,,Haze,0,2013-10-12 03:55:00
11:15 PM,60.8,44.6,55,30.02,3.0,Calm,Calm,-,N/A,,Haze,0,2013-10-12 04:15:00
11:35 PM,60.8,44.6,55,30.02,0.5,Calm,Calm,-,N/A,,Haze,0,2013-10-12 04:35:00
11:55 PM,60.8,44.6,55,30.02,0.5,Calm,Calm,-,N/A,,Haze,0,2013-10-12 04:55:00